Wetbulb
60.41 60.52 60.64 60.77 60.86 60.69 60.22 59.81 59.38 59.02 58.98 58.88 58.87 58.82 58.59 58.41 58.26 57.96 57.50 57.31 57.35 56.86 57.01 57.73 58.82 59.75 53.96 47.15 47.30 55.20 59.78 59.15 55.09 53.56 50.70 49.20 45.49 44.08 41.41 42.04 44.30 41.88 43.12 45.24 45.01 44.59 43.88
61.32 61.39 61.39 61.26 61.18 61.03 60.81 60.38 59.89 59.62 59.62 59.64 59.27 58.83 58.50 58.42 58.41 58.58 58.59 58.02 57.47 57.00 56.57 57.12 58.36 58.98 50.87 40.93 53.63 54.34 52.87 53.26 53.04 51.23 48.74 47.82 46.19 47.12 43.79 43.31 41.70 43.78 44.43 43.96 44.37 43.61 43.70
62.08 62.23 62.33 62.29 62.07 61.56 61.31 60.93 60.52 60.10 59.97 59.94 59.65 59.14 59.00 58.88 58.69 58.95 58.95 57.87 57.12 56.84 56.82 56.77 58.01 55.05 47.41 44.58 52.68 52.47 52.75 51.22 51.26 50.73 48.06 49.80 49.17 45.85 45.34 42.34 45.70 44.27 40.26 41.75 42.20 42.85 41.78
63.21 62.92 62.61 62.75 62.90 62.59 62.12 61.69 61.22 60.91 60.69 60.42 59.92 59.46 59.20 58.88 58.78 58.71 58.35 57.84 57.35 57.17 57.07 56.74 57.93 50.63 42.45 52.90 50.82 51.72 51.65 50.57 51.53 51.45 50.57 50.31 49.79 46.98 45.32 44.55 43.58 38.80 38.05 33.12 40.51 41.82 42.18
60.72 60.49 60.04 60.29 60.45 60.99 61.42 61.70 61.70 61.32 61.25 60.98 60.23 59.63 59.26 58.81 58.52 58.17 57.39 56.86 57.16 57.30 56.46 57.18 49.88 46.63 41.59 54.36 49.01 51.00 49.97 49.13 49.89 49.89 50.02 50.82 48.13 44.37 43.70 38.09 33.18 35.01 29.20 32.62 36.98 42.25 40.36
58.38 58.19 58.17 58.26 58.42 58.70 59.15 59.64 60.07 60.41 60.89 60.54 60.19 59.33 58.80 58.53 58.23 57.70 56.58 56.59 56.77 54.78 53.28 54.32 51.56 41.14 45.39 45.12 48.88 50.09 49.14 50.32 47.44 47.13 47.22 44.49 41.95 37.41 37.17 33.64 26.77 29.55 30.76 33.19 33.63 39.39 38.42
56.85 56.70 56.45 56.28 56.25 56.21 56.97 57.64 58.56 59.02 59.83 60.19 59.78 58.95 58.53 58.27 58.04 57.60 53.37 48.51 44.17 43.11 44.50 42.62 44.00 42.68 46.33 49.11 50.34 47.97 49.59 48.06 46.66 43.12 36.77 40.71 34.61 32.62 35.44 37.64 36.50 34.82 33.13 32.48 35.85 39.81 38.17
55.84 55.98 55.99 55.80 55.65 55.52 55.40 55.45 57.16 58.09 58.31 58.32 59.04 58.57 58.28 58.21 57.74 57.21 49.31 44.82 44.35 43.96 38.58 44.73 44.73 44.16 47.44 48.80 43.94 46.72 49.10 42.30 40.73 35.88 37.74 35.68 32.99 38.34 39.87 39.04 37.86 36.40 34.21 33.69 37.14 39.39 38.27
54.83 55.14 55.28 55.35 55.32 55.30 55.23 55.19 55.16 56.54 56.84 56.62 56.96 57.84 58.17 57.65 57.00 50.28 45.12 44.86 49.32 47.95 38.81 42.17 45.07 44.29 44.81 46.46 42.04 42.83 45.61 42.63 38.58 35.83 35.89 32.22 36.63 40.93 39.28 37.18 35.84 34.33 31.63 32.80 33.02 35.73 36.67
54.31 54.35 54.54 55.09 55.08 55.07 54.99 54.99 55.08 55.18 55.71 55.98 56.20 57.02 57.50 56.78 52.38 48.70 42.59 47.31 48.95 48.18 33.15 38.58 40.55 44.03 45.66 45.51 40.10 47.09 46.72 43.01 39.12 35.58 35.97 35.08 40.17 39.04 37.13 35.57 35.27 31.03 35.90 36.08 34.84 31.08 26.20
54.35 54.29 54.10 54.30 54.91 54.89 54.75 54.76 54.74 54.46 55.12 55.23 55.50 55.61 55.90 56.26 47.12 45.46 44.75 47.53 47.05 44.64 23.67 40.54 40.21 47.10 45.50 41.11 41.32 42.02 45.48 42.64 36.50 36.94 35.00 33.41 35.03 34.41 34.95 37.00 36.99 34.19 37.18 35.18 33.22 29.10 26.74
54.61 54.37 54.14 54.00 53.98 54.30 54.64 54.66 54.44 54.20 54.19 54.24 54.60 54.26 54.71 53.08 49.46 47.24 47.50 46.35 44.62 33.73 22.95 37.40 40.35 39.61 38.99 40.25 40.85 41.64 40.99 42.22 41.36 37.12 36.32 35.55 38.36 37.26 36.57 38.05 36.80 36.81 33.16 32.15 30.13 27.48 21.08
53.75 54.18 54.19 54.06 53.83 53.59 53.66 53.97 53.83 53.78 53.83 53.62 53.63 54.27 52.87 53.00 47.92 47.87 47.27 40.46 31.00 25.35 38.87 35.47 36.13 38.35 37.14 36.57 37.90 37.92 36.13 33.24 31.55 27.27 26.92 33.29 34.73 37.47 39.00 34.34 35.62 33.52 28.66 21.64 20.45 19.78 20.70
52.48 52.88 53.22 53.64 53.72 53.64 53.41 53.32 52.91 52.85 53.08 53.53 53.04 53.71 50.84 52.12 51.60 47.44 42.66 34.77 24.82 32.86 35.04 39.09 37.48 37.70 34.05 36.63 36.14 36.53 33.69 30.90 34.37 32.16 28.14 24.89 25.44 34.29 36.84 34.86 31.70 30.76 29.76 22.48 20.59 19.86 21.02
51.54 51.80 51.95 52.35 52.81 53.07 53.32 53.12 52.76 52.38 52.74 53.18 52.69 47.33 46.64 49.44 50.69 45.04 39.15 27.35 26.63 32.70 37.13 36.49 36.56 32.98 33.47 36.42 34.24 32.72 32.16 32.32 33.65 33.69 28.70 27.25 27.98 35.39 36.48 36.76 36.18 30.47 26.93 33.83 26.32 25.46 20.60
50.38 50.63 51.30 51.54 52.10 52.29 52.68 52.64 52.55 51.91 52.40 52.81 44.72 43.35 44.21 47.70 47.51 44.97 37.68 31.49 33.08 37.73 38.04 36.64 31.24 33.48 29.17 31.65 32.31 32.96 32.28 35.18 35.66 34.23 32.69 30.78 26.08 32.55 33.47 35.18 34.60 32.69 33.34 25.91 26.07 19.76 18.99
49.40 49.30 49.95 51.00 50.99 51.46 51.59 52.01 52.17 51.60 51.69 52.41 44.78 39.23 44.48 47.23 45.36 41.46 32.27 30.02 35.02 39.80 39.97 35.09 32.63 31.93 31.82 31.55 33.32 31.24 32.94 36.41 35.75 35.01 36.26 33.01 28.49 27.59 30.59 29.23 29.58 29.04 27.73 29.44 29.09 25.21 22.02
49.24 49.20 49.19 50.09 50.47 50.47 50.99 51.44 51.59 51.46 51.60 47.36 40.53 32.43 44.87 45.92 36.19 35.91 31.82 35.09 38.87 37.45 39.73 38.17 36.28 35.11 33.41 33.71 31.32 31.68 31.87 34.93 36.13 34.78 32.96 34.60 32.24 27.47 30.09 33.06 33.72 32.86 31.91 32.90 27.07 23.88 24.25
49.54 49.42 49.32 49.36 49.89 50.14 50.13 50.83 51.39 51.08 50.66 42.76 37.03 36.45 44.62 42.66 28.84 28.86 34.11 35.99 37.38 36.70 37.01 36.80 35.35 36.67 36.14 33.21 28.57 32.60 33.56 37.12 35.93 33.99 34.47 35.52 30.30 25.05 25.22 28.43 29.43 27.53 30.00 31.76 31.31 28.30 24.49
50.01 49.55 49.39 48.92 49.63 50.01 49.95 49.95 50.29 51.05 50.41 43.77 36.45 30.72 37.82 38.36 38.27 34.81 32.16 31.93 31.61 37.69 37.49 38.04 36.30 36.65 33.31 31.03 33.46 31.51 32.52 35.82 36.85 35.44 39.53 36.14 30.53 27.85 22.70 25.92 30.73 28.53 30.58 32.20 31.06 24.91 23.90
49.53 49.59 49.22 48.74 48.81 48.78 49.25 49.63 49.44 50.17 50.17 42.60 35.87 31.32 34.41 26.38 34.07 32.17 32.08 32.28 30.61 30.28 37.08 37.10 33.31 34.51 32.89 30.79 28.44 29.01 32.10 32.75 34.67 36.99 34.53 33.44 26.74 28.03 28.17 29.24 29.69 29.19 28.76 29.36 27.84 29.78 26.62
49.32 49.30 49.20 49.01 48.55 48.45 48.71 49.17 48.89 49.32 49.64 42.57 35.32 32.04 34.78 32.79 33.52 31.83 34.44 32.60 33.51 33.61 34.12 32.94 31.96 33.04 34.58 30.93 30.68 29.78 31.14 28.98 29.76 32.42 32.41 33.95 27.37 29.24 26.40 29.18 29.18 27.99 29.36 29.86 29.72 30.14 30.20
49.25 49.24 49.01 48.77 48.57 48.42 48.54 48.56 48.41 48.69 48.28 41.63 39.34 38.93 37.85 33.62 29.95 27.78 26.62 31.38 32.92 35.65 35.28 36.46 35.46 33.52 29.29 32.22 33.81 33.37 33.65 32.52 32.34 31.54 30.15 29.83 27.78 24.94 20.82 25.72 25.63 22.08 24.08 26.54 27.54 30.10 22.45
48.93 48.92 48.89 48.73 48.51 48.51 48.61 48.61 48.23 47.98 47.98 44.46 42.33 40.42 35.67 29.29 32.53 31.93 32.49 32.70 32.15 33.08 30.44 33.65 33.90 32.64 33.71 36.54 35.72 31.98 31.88 31.01 30.43 30.88 32.36 28.60 26.34 26.55 21.88 22.19 15.31 19.52 20.22 20.50 20.08 19.00 18.94
48.39 48.52 48.36 48.51 48.43 48.38 48.80 48.56 47.78 47.46 47.92 43.94 44.22 40.82 35.94 29.56 30.47 30.88 31.25 31.32 31.32 30.98 31.70 31.69 34.02 35.39 35.70 33.66 27.86 20.81 19.81 20.64 20.40 29.05 28.85 30.86 27.49 22.96 17.90 13.43 21.77 21.34 21.44 18.45 17.08 15.46 18.85
47.77 47.90 47.86 48.29 48.31 48.21 48.05 47.80 47.43 47.30 47.69 44.31 44.07 44.96 40.15 32.45 31.49 33.74 31.37 31.78 30.29 27.82 24.34 33.19 33.00 34.01 32.96 28.97 25.19 14.38 15.10 18.81 17.45 21.98 23.17 27.07 28.35 23.75 11.92 16.88 15.67 15.50 20.17 23.58 22.29 12.22 18.26
47.78 47.81 47.65 47.57 47.97 47.76 47.79 47.69 47.22 47.32 47.78 44.49 40.88 45.37 41.09 32.32 35.48 35.24 31.02 30.82 34.68 32.78 29.46 30.34 30.77 29.75 31.79 24.96 23.65 18.72 17.12 20.16 18.57 15.83 17.40 15.07 18.16 18.94 17.90 18.50 16.70 18.03 20.33 22.46 15.02 12.95 19.46
47.46 47.40 47.49 47.53 47.34 47.30 47.38 47.27 47.01 47.54 47.76 45.72 40.25 44.43 41.24 34.86 35.04 37.08 37.41 34.21 33.93 33.24 27.46 27.33 29.38 28.82 26.88 21.35 20.27 20.04 23.19 23.29 17.26 16.82 17.17 17.46 18.24 19.38 18.61 17.30 14.01 19.71 19.59 12.90 16.45 19.62 21.34
46.84 47.05 47.21 47.07 47.09 46.86 46.74 46.60 46.63 46.95 47.70 47.41 38.82 43.41 44.45 37.77 33.19 34.26 34.26 34.12 34.33 33.21 32.44 32.05 30.14 26.40 27.33 25.33 18.07 17.25 20.24 16.16 15.20 14.64 21.40 17.00 14.18 15.62 15.18 13.12 17.85 18.36 17.77 19.95 21.76 19.49 19.73
MSLP
1024.40 1024.27 1024.12 1023.93 1023.73 1023.51 1023.26 1023.02 1022.77 1022.46 1022.04 1021.64 1021.25 1020.84 1020.38 1019.90 1019.36 1018.82 1018.28 1017.79 1017.35 1016.94 1016.67 1016.44 1016.13 1015.79 1015.19 1014.74 1012.98 1012.30 1012.42 1012.40 1012.42 1012.62 1012.75 1012.71 1012.83 1012.78 1012.72 1012.49 1012.38 1012.49 1012.68 1012.76 1012.84 1013.09 1013.28
1024.41 1024.31 1024.13 1023.91 1023.67 1023.45 1023.25 1023.03 1022.76 1022.46 1022.11 1021.74 1021.33 1020.88 1020.38 1019.83 1019.21 1018.60 1017.94 1017.36 1016.88 1016.48 1016.16 1016.02 1015.80 1015.73 1015.46 1014.50 1012.42 1012.45 1012.45 1012.54 1012.36 1012.33 1012.41 1012.54 1012.66 1012.56 1012.67 1012.50 1012.60 1012.57 1012.70 1012.97 1013.08 1013.28 1013.42
1024.40 1024.27 1024.08 1023.90 1023.67 1023.46 1023.25 1023.02 1022.77 1022.41 1022.05 1021.70 1021.29 1020.86 1020.34 1019.76 1019.03 1018.27 1017.54 1016.86 1016.31 1015.89 1015.63 1015.55 1015.41 1015.53 1015.12 1013.22 1012.20 1012.36 1012.46 1012.48 1012.35 1012.31 1012.32 1012.17 1012.35 1012.61 1012.72 1012.61 1012.66 1012.82 1013.17 1013.10 1013.00 1013.26 1013.61
1024.34 1024.18 1024.00 1023.78 1023.54 1023.32 1023.15 1022.88 1022.60 1022.24 1021.85 1021.48 1021.07 1020.55 1019.96 1019.36 1018.67 1017.84 1017.01 1016.20 1015.64 1015.20 1015.03 1014.97 1015.04 1015.12 1014.02 1012.26 1012.20 1012.22 1012.17 1012.34 1012.43 1012.45 1012.45 1012.36 1012.16 1012.58 1012.67 1013.02 1013.22 1013.59 1013.83 1013.64 1012.83 1013.22 1013.58
1024.72 1024.53 1024.33 1024.06 1023.73 1023.44 1023.19 1022.87 1022.44 1022.09 1021.63 1021.22 1020.90 1020.45 1019.82 1019.10 1018.39 1017.34 1016.31 1015.44 1015.01 1014.65 1014.73 1014.87 1015.10 1014.82 1013.30 1012.29 1012.15 1011.88 1011.92 1012.12 1012.22 1012.29 1012.41 1012.48 1012.61 1012.64 1012.95 1013.40 1014.09 1014.10 1014.05 1013.67 1013.20 1013.00 1013.43
1025.07 1024.82 1024.58 1024.29 1023.98 1023.62 1023.32 1023.04 1022.73 1022.30 1021.73 1021.17 1020.81 1020.33 1019.77 1019.09 1018.41 1017.32 1015.92 1014.72 1014.60 1014.64 1014.64 1014.77 1014.62 1014.88 1013.14 1012.44 1012.22 1012.13 1012.01 1012.15 1012.29 1012.44 1012.71 1012.83 1013.11 1013.24 1013.49 1013.95 1014.05 1013.73 1013.77 1013.23 1013.00 1012.85 1013.50
1025.14 1024.87 1024.67 1024.36 1024.07 1023.72 1023.38 1023.09 1022.79 1022.40 1021.83 1021.36 1020.91 1020.42 1019.85 1019.08 1018.50 1017.56 1016.26 1015.16 1015.83 1015.55 1015.19 1014.59 1014.02 1013.28 1012.41 1012.41 1012.24 1012.30 1012.24 1012.42 1012.51 1012.77 1013.08 1013.06 1013.71 1012.94 1012.48 1012.67 1012.48 1012.66 1012.85 1012.64 1011.90 1011.86 1012.71
1025.33 1025.01 1024.68 1024.32 1023.97 1023.61 1023.32 1023.00 1022.67 1022.30 1021.90 1021.52 1020.92 1020.49 1019.93 1019.05 1018.48 1017.96 1017.41 1018.08 1018.84 1019.05 1016.67 1014.24 1013.13 1012.93 1012.42 1012.12 1012.40 1012.22 1012.04 1012.72 1012.90 1013.05 1013.22 1013.43 1012.68 1011.74 1012.13 1012.46 1012.70 1012.72 1012.58 1011.86 1011.35 1010.92 1011.66
1025.52 1025.19 1024.90 1024.57 1024.21 1023.82 1023.46 1023.13 1022.75 1022.28 1021.86 1021.51 1021.05 1020.56 1019.99 1019.06 1018.42 1018.09 1018.50 1018.91 1018.80 1018.85 1018.59 1013.49 1012.48 1012.15 1012.20 1012.27 1012.48 1012.42 1012.62 1012.79 1013.09 1013.06 1013.17 1013.15 1011.21 1010.89 1011.86 1012.05 1012.13 1011.99 1012.01 1011.40 1011.40 1011.08 1011.20
1025.64 1025.26 1024.92 1024.62 1024.33 1023.95 1023.52 1023.15 1022.85 1022.45 1022.06 1021.63 1021.15 1020.52 1019.90 1019.24 1018.57 1018.81 1018.87 1018.86 1018.67 1018.77 1018.20 1014.29 1012.79 1012.70 1012.49 1012.50 1012.84 1012.66 1012.82 1013.02 1012.97 1012.85 1013.14 1012.79 1011.26 1011.24 1011.34 1011.10 1011.31 1011.60 1010.70 1011.11 1011.33 1011.86 1011.98
1025.70 1025.28 1024.89 1024.58 1024.24 1023.91 1023.61 1023.26 1022.85 1022.53 1022.23 1021.68 1021.27 1020.83 1020.22 1019.83 1019.66 1019.21 1019.04 1018.87 1018.66 1018.97 1017.57 1013.50 1012.96 1012.69 1012.63 1012.86 1012.94 1012.96 1012.87 1012.94 1013.34 1013.21 1013.21 1012.04 1011.19 1011.11 1011.01 1009.89 1010.53 1010.03 1010.20 1010.85 1011.41 1011.98 1012.18
1025.47 1025.14 1024.79 1024.47 1024.13 1023.82 1023.52 1023.22 1022.92 1022.47 1022.13 1021.92 1021.41 1020.84 1020.21 1019.64 1019.71 1018.87 1018.67 1018.71 1018.77 1018.89 1016.07 1013.35 1012.92 1012.76 1012.83 1012.92 1012.83 1012.96 1013.10 1013.23 1013.25 1013.30 1012.88 1012.21 1011.28 1011.01 1010.47 1010.36 1010.53 1010.55 1010.69 1011.00 1011.52 1012.49 1012.01
1025.31 1025.01 1024.68 1024.35 1024.08 1023.87 1023.55 1023.17 1022.78 1022.39 1022.01 1021.65 1021.25 1020.79 1020.58 1020.15 1019.57 1019.06 1018.81 1018.91 1019.34 1017.83 1014.39 1013.73 1013.27 1013.12 1013.06 1013.10 1013.05 1013.15 1013.62 1013.88 1013.82 1013.74 1013.01 1012.15 1011.03 1010.22 1010.23 1010.65 1010.91 1011.14 1011.72 1012.42 1012.54 1012.89 1010.51
1025.17 1024.86 1024.57 1024.24 1023.97 1023.73 1023.50 1023.14 1022.75 1022.43 1021.96 1021.48 1020.93 1020.34 1019.95 1019.53 1019.02 1019.20 1019.28 1019.49 1019.09 1016.54 1015.11 1014.07 1014.01 1013.36 1013.30 1012.87 1012.90 1013.30 1013.67 1013.88 1013.46 1013.66 1013.47 1012.52 1010.93 1010.42 1010.36 1010.54 1010.48 1011.03 1011.62 1012.39 1011.88 1011.44 1010.32
1025.01 1024.68 1024.32 1024.01 1023.75 1023.41 1023.17 1022.94 1022.69 1022.30 1021.88 1021.36 1020.74 1020.22 1019.92 1019.31 1019.12 1019.23 1019.72 1019.50 1017.77 1016.44 1015.61 1015.28 1014.49 1014.11 1013.82 1013.54 1013.64 1013.39 1013.70 1013.65 1013.21 1013.29 1013.78 1012.99 1011.45 1010.50 1010.35 1010.36 1010.84 1011.23 1011.54 1011.16 1011.66 1011.32 1010.67
1024.94 1024.64 1024.25 1023.79 1023.44 1023.10 1022.83 1022.51 1022.37 1022.15 1021.78 1021.47 1021.46 1020.70 1020.06 1019.57 1019.24 1019.23 1019.36 1018.75 1017.43 1016.15 1015.85 1015.66 1016.01 1015.51 1015.10 1015.00 1015.19 1014.78 1014.32 1013.77 1013.54 1013.78 1013.83 1013.46 1012.13 1011.47 1011.40 1010.89 1010.78 1010.96 1011.46 1011.63 1012.04 1011.79 1010.32
1024.81 1024.54 1024.21 1023.81 1023.43 1023.16 1022.76 1022.33 1021.96 1021.72 1021.43 1021.08 1021.34 1020.92 1019.89 1019.32 1019.29 1019.59 1019.39 1018.59 1017.57 1016.71 1016.37 1016.35 1016.13 1015.92 1016.09 1016.08 1015.77 1015.61 1015.06 1014.33 1014.22 1014.09 1014.08 1014.22 1013.84 1012.34 1011.99 1011.79 1011.39 1011.46 1011.36 1011.66 1011.72 1011.26 1010.08
1024.47 1024.22 1023.95 1023.61 1023.25 1022.95 1022.60 1022.22 1021.84 1021.66 1021.39 1020.94 1021.46 1021.15 1019.75 1019.45 1019.96 1019.49 1018.89 1018.02 1017.53 1017.01 1016.64 1016.66 1016.51 1016.48 1016.57 1016.48 1016.36 1016.07 1015.46 1015.12 1014.98 1014.93 1015.22 1015.48 1014.86 1013.17 1012.46 1011.79 1011.16 1010.93 1010.73 1010.83 1011.19 1010.36 1009.35
1024.13 1023.91 1023.59 1023.22 1022.95 1022.68 1022.41 1022.11 1021.89 1021.62 1021.44 1021.74 1021.74 1020.96 1020.24 1020.11 1020.14 1020.02 1019.29 1018.48 1017.78 1017.15 1016.90 1016.62 1016.38 1016.44 1016.49 1016.92 1017.16 1016.45 1015.95 1015.50 1015.41 1015.64 1016.01 1016.40 1015.69 1014.49 1012.62 1012.00 1011.67 1011.36 1011.33 1011.51 1011.51 1010.91 1008.84
1023.62 1023.47 1023.29 1022.99 1022.73 1022.47 1022.18 1021.87 1021.65 1021.45 1021.34 1021.76 1021.91 1021.33 1020.88 1020.81 1020.70 1020.43 1019.97 1019.24 1018.36 1017.25 1017.17 1017.26 1017.08 1017.10 1017.27 1017.33 1017.04 1016.98 1016.60 1015.96 1015.84 1016.21 1016.41 1017.22 1016.65 1016.11 1014.25 1013.42 1013.31 1012.93 1012.11 1011.79 1012.26 1011.36 1010.03
1022.79 1022.64 1022.53 1022.41 1022.36 1022.17 1021.99 1021.74 1021.49 1021.37 1021.27 1021.70 1021.76 1021.14 1020.23 1020.63 1020.67 1020.58 1020.30 1019.57 1019.00 1018.20 1017.45 1017.33 1017.40 1017.69 1017.86 1018.03 1017.63 1017.21 1016.79 1016.77 1016.47 1016.27 1016.34 1016.79 1016.37 1016.28 1014.48 1013.79 1013.77 1013.37 1012.69 1012.11 1012.28 1011.30 1010.88
1022.14 1021.98 1021.80 1021.73 1021.59 1021.48 1021.44 1021.32 1021.20 1021.08 1021.10 1021.44 1021.43 1021.06 1020.31 1020.24 1020.30 1020.27 1020.27 1019.55 1019.03 1018.56 1018.40 1017.69 1017.63 1017.75 1018.21 1018.09 1018.21 1018.12 1017.81 1017.35 1017.14 1016.63 1016.62 1016.87 1015.99 1015.91 1014.45 1014.03 1013.59 1013.22 1012.82 1012.79 1012.23 1011.35 1010.96
1021.47 1021.36 1021.21 1021.14 1021.05 1020.83 1020.74 1020.68 1020.71 1020.72 1020.74 1020.59 1020.63 1020.43 1020.47 1020.07 1019.94 1019.94 1019.60 1019.05 1018.90 1018.84 1018.35 1018.02 1017.83 1018.07 1018.10 1018.19 1018.16 1018.53 1018.53 1017.80 1017.27 1017.11 1017.10 1017.20 1016.62 1016.10 1014.24 1014.18 1014.34 1013.82 1013.34 1013.01 1012.60 1012.30 1013.70
1020.78 1020.67 1020.52 1020.36 1020.25 1020.12 1020.15 1020.09 1019.95 1019.94 1020.14 1020.33 1019.87 1020.08 1020.20 1019.48 1019.64 1019.49 1019.14 1018.85 1018.63 1018.69 1018.58 1018.23 1018.25 1018.34 1018.48 1018.41 1018.06 1018.03 1018.01 1017.37 1016.96 1016.39 1017.25 1016.69 1016.83 1016.50 1015.16 1015.03 1014.68 1014.16 1015.01 1015.23 1015.46 1015.94 1016.05
1019.79 1019.79 1019.73 1019.59 1019.43 1019.19 1019.18 1019.18 1019.39 1019.33 1019.36 1019.72 1019.54 1019.48 1019.47 1018.88 1018.59 1018.81 1018.66 1018.42 1018.09 1018.18 1018.57 1018.48 1018.37 1018.48 1018.62 1018.71 1018.47 1018.50 1018.16 1017.75 1016.85 1016.72 1016.77 1016.91 1017.14 1016.53 1016.06 1016.01 1014.76 1015.05 1016.57 1017.48 1017.64 1017.61 1017.80
1018.87 1018.62 1018.55 1018.46 1018.40 1018.30 1018.22 1018.24 1018.38 1018.46 1018.58 1018.67 1018.65 1018.87 1018.60 1018.44 1017.76 1017.91 1018.25 1018.36 1018.43 1018.11 1018.11 1018.45 1018.91 1019.14 1019.27 1018.89 1019.00 1019.15 1018.98 1018.39 1017.96 1017.45 1017.58 1017.57 1017.46 1017.53 1016.92 1016.78 1016.74 1018.36 1018.43 1018.46 1018.64 1018.79 1018.93
1017.80 1017.69 1017.70 1017.60 1017.34 1017.42 1017.36 1017.24 1017.35 1017.43 1017.55 1017.69 1017.67 1017.54 1017.95 1017.73 1017.59 1017.93 1018.01 1018.00 1018.27 1018.48 1018.30 1018.38 1018.80 1019.28 1019.32 1019.34 1019.19 1019.11 1018.84 1018.22 1018.29 1018.28 1018.36 1018.72 1018.55 1018.08 1017.66 1017.80 1018.48 1019.81 1019.13 1018.49 1019.65 1020.86 1019.91
1016.97 1016.80 1016.59 1016.43 1016.43 1016.44 1016.53 1016.59 1016.51 1016.36 1016.30 1016.64 1016.54 1016.74 1017.24 1017.10 1017.45 1017.68 1017.83 1018.12 1018.23 1018.50 1018.35 1018.40 1018.87 1018.85 1019.35 1019.39 1019.08 1018.60 1018.52 1018.29 1018.58 1018.55 1018.68 1019.47 1019.82 1019.23 1019.25 1019.59 1020.76 1021.04 1020.24 1021.22 1022.37 1021.37 1020.95
1016.10 1015.97 1015.77 1015.65 1015.42 1015.31 1015.60 1015.83 1015.68 1015.39 1015.20 1015.21 1015.88 1015.76 1016.12 1016.93 1017.76 1018.16 1018.32 1018.47 1018.41 1018.62 1018.73 1018.00 1017.46 1017.93 1018.09 1018.68 1018.88 1018.72 1018.84 1018.78 1019.23 1019.99 1019.81 1021.33 1022.16 1021.76 1022.08 1022.60 1023.36 1023.60 1023.65 1023.59 1022.85 1022.27 1021.52
Wind_Speed
12 12 12 12 13 14 13 14 15 16 17 17 18 19 19 20 20 20 19 19 18 17 15 15 15 13 7 4 8 6 6 5 2 3 3 1 2 2 3 1 1 3 3 1 1 3 5
10 10 11 11 12 13 13 13 13 14 16 17 18 18 18 18 19 20 20 20 19 17 15 14 13 10 2 5 3 6 4 3 3 4 3 4 2 2 4 4 3 2 1 3 4 3 4
9 10 11 11 11 10 11 11 11 11 13 15 16 17 18 20 22 22 22 22 20 18 15 13 10 3 4 13 4 5 4 2 2 2 3 1 3 2 4 3 1 1 4 5 7 6 5
12 13 15 15 12 10 10 9 10 10 12 13 15 15 16 19 21 23 24 23 20 17 13 10 6 2 8 1 1 2 4 3 3 3 1 2 3 3 3 1 3 1 1 3 3 9 5
15 15 16 15 16 17 16 14 13 12 11 11 13 14 17 19 21 23 23 22 17 6 1 3 2 3 9 1 3 4 2 2 4 2 1 2 1 4 2 6 3 3 6 7 5 10 6
15 16 15 15 16 16 17 17 17 17 17 14 13 15 17 20 21 25 26 20 2 3 1 3 3 2 4 3 2 2 2 1 2 4 1 1 1 2 1 5 8 8 6 6 7 7 5
14 14 15 15 15 16 16 17 17 18 18 16 14 16 18 21 22 25 15 6 9 5 6 7 4 5 3 1 1 3 3 2 2 2 6 4 4 11 15 12 7 6 5 9 8 7 10
14 14 13 13 14 14 15 15 16 16 17 20 15 14 19 21 21 21 7 7 4 4 14 9 17 13 5 4 3 4 6 5 5 6 3 1 14 13 7 8 10 11 15 19 12 7 11
13 14 14 14 15 15 15 16 16 15 15 16 16 16 15 22 24 4 4 3 2 1 3 12 3 3 3 4 4 5 9 3 5 5 6 8 9 3 9 9 13 10 8 11 9 2 4
14 13 14 14 13 14 15 15 17 17 16 14 14 14 15 21 4 5 2 5 3 2 3 7 2 3 2 2 2 3 1 1 3 7 7 9 12 14 11 11 7 11 8 10 6 2 8
13 13 14 14 15 14 14 14 14 15 16 15 15 15 16 8 4 3 4 5 6 2 7 2 1 2 1 2 2 2 1 3 4 4 2 10 3 4 10 22 9 12 5 8 3 4 4
14 14 14 14 15 15 14 14 14 14 13 15 16 14 15 3 2 3 5 5 2 5 10 1 2 1 1 3 2 3 1 2 3 4 5 13 2 4 7 2 3 1 2 1 3 3 8
15 16 15 14 14 15 15 14 14 14 13 14 15 15 9 5 4 5 4 3 5 6 6 1 1 0 2 3 3 6 4 2 3 4 4 5 7 5 5 3 2 3 5 4 3 1 13
15 16 16 15 16 16 15 14 15 15 15 15 17 16 6 5 3 5 4 5 5 4 7 6 6 5 5 1 4 4 3 3 7 5 3 4 8 6 3 8 7 7 9 7 8 6 6
14 15 15 15 15 15 16 14 14 14 14 15 15 4 3 4 3 3 4 2 8 5 3 8 9 4 4 3 2 4 7 5 3 6 5 6 6 1 4 4 6 2 6 9 9 6 5
14 15 15 15 14 15 15 13 12 13 14 14 3 3 3 6 2 1 3 7 5 3 5 2 2 4 3 9 9 8 2 2 5 4 1 4 13 2 4 2 2 5 1 2 2 5 9
15 16 16 17 15 13 14 13 11 11 13 15 2 3 3 4 1 1 4 6 4 5 5 3 2 5 0 2 4 2 5 7 6 7 6 5 5 3 3 4 7 2 3 4 3 5 9
16 16 17 16 14 13 13 13 11 9 13 5 2 3 3 3 1 2 4 4 4 3 3 5 4 5 5 3 4 5 5 5 6 1 2 1 5 12 15 10 9 7 12 13 12 13 10
16 15 15 14 13 12 12 13 12 8 6 1 2 3 3 2 3 3 5 7 8 10 7 4 5 5 2 5 3 4 3 3 5 5 5 6 3 8 9 3 5 4 0 6 10 6 22
17 16 14 16 13 12 12 12 11 10 5 2 2 3 1 2 2 4 4 6 7 3 4 5 4 2 4 5 8 4 5 3 6 2 7 3 4 8 15 16 11 17 23 16 14 6 11
17 16 16 15 14 14 14 13 11 12 7 3 2 5 5 2 3 5 3 2 5 4 4 2 1 5 5 4 3 8 7 3 7 9 2 7 8 12 21 22 17 21 24 23 19 24 21
18 17 17 17 15 14 13 12 11 11 8 2 2 2 4 2 3 4 5 3 8 13 5 5 5 10 5 5 6 10 3 2 7 3 5 3 9 12 22 22 21 22 22 21 25 28 28
20 18 18 17 17 16 14 12 11 11 6 3 3 3 1 4 3 3 5 6 6 3 7 14 7 3 5 8 2 4 8 8 9 10 13 6 6 7 20 16 10 13 11 12 12 11 6
22 20 19 19 18 16 15 14 12 12 9 3 3 2 2 4 6 5 6 4 8 8 7 6 1 3 2 2 4 7 12 16 16 18 11 11 14 5 10 10 10 2 7 6 3 6 8
24 22 21 21 20 18 17 16 16 15 15 5 3 3 4 4 5 6 10 8 6 6 6 5 4 1 3 1 1 6 6 6 4 2 6 11 7 5 3 4 11 3 9 6 6 3 10
25 24 23 22 23 19 19 17 17 17 18 7 5 4 3 2 7 8 5 3 6 6 4 5 2 1 0 2 2 4 4 3 6 2 3 0 4 4 3 7 5 4 12 8 5 6 15
24 24 23 23 22 20 21 17 17 18 19 7 4 9 4 3 5 5 5 4 3 3 4 2 4 2 2 2 3 3 6 5 3 3 4 2 3 8 8 6 3 10 15 9 1 7 18
24 22 22 21 22 22 21 18 18 19 21 12 4 8 7 4 2 2 3 4 3 3 4 2 2 2 3 3 2 4 3 3 2 3 3 3 2 1 3 2 3 18 4 8 8 10 11
24 24 23 20 21 20 18 18 20 20 20 11 4 4 5 3 2 0 1 1 1 1 1 5 3 5 5 3 1 0 3 3 4 5 5 1 3 2 3 3 3 6 8 10 7 10 6
Wind_Direction
15 12 7 5 4 5 6 5 4 0 360 358 357 355 351 346 340 334 328 323 321 318 313 313 310 312 333 286 258 169 187 194 193 164 196 252 216 206 223 239 203 212 287 229 156 310 279
11 7 3 3 3 4 2 0 358 356 355 354 352 349 341 335 331 326 321 319 314 307 303 301 302 320 283 268 116 144 175 189 173 162 180 200 208 251 259 244 180 188 198 238 220 249 257
360 355 354 351 350 349 350 351 343 345 350 348 346 340 333 330 328 322 318 316 308 300 291 285 291 298 275 242 152 163 187 230 193 180 171 126 129 97 351 297 20 36 318 284 218 205 235
16 23 21 9 351 344 340 337 334 334 338 339 338 332 329 327 325 322 320 313 306 302 288 260 242 210 245 231 152 186 198 220 229 249 233 195 137 162 188 174 348 261 250 281 269 152 226
26 24 21 15 14 13 4 350 331 328 321 329 328 328 326 326 325 323 319 312 305 316 225 193 172 182 265 176 194 192 139 227 170 150 262 274 223 176 124 121 5 262 243 223 298 195 142
21 21 18 13 9 7 4 1 359 351 337 327 332 328 328 328 328 326 320 317 198 9 236 206 284 6 272 244 139 163 173 225 189 156 88 182 90 160 133 118 220 212 218 243 223 215 187
16 15 12 9 5 4 3 1 356 354 354 350 340 335 332 327 332 329 336 14 10 352 11 226 217 260 115 86 78 203 201 145 247 176 187 212 136 214 201 201 210 207 225 244 249 202 187
4 4 3 2 1 359 357 357 356 357 357 351 343 336 332 325 326 326 347 69 167 220 308 243 251 257 222 165 256 231 136 165 176 214 197 82 232 229 201 212 231 252 255 262 276 214 179
356 355 354 353 353 353 353 352 353 353 357 356 350 339 331 320 320 20 92 91 222 325 247 299 262 54 75 128 248 249 155 197 218 222 199 188 220 203 210 245 243 240 230 253 249 251 239
351 350 349 345 347 349 351 350 350 350 350 351 346 341 339 328 44 333 61 337 324 125 336 270 359 16 35 57 298 1 183 350 268 242 214 237 249 236 239 244 185 257 228 253 261 246 255
342 347 351 350 347 345 347 349 351 350 347 346 344 342 333 337 273 334 302 343 312 75 342 292 102 281 38 147 263 48 27 58 258 292 358 248 278 201 226 240 175 236 198 217 214 244 325
333 338 344 346 347 346 341 346 351 353 353 342 336 334 331 24 281 258 335 326 63 42 256 307 132 133 353 190 234 145 121 154 250 276 218 245 293 236 216 295 211 107 112 52 58 97 266
343 339 334 335 337 338 340 342 344 347 348 336 325 317 315 308 265 338 343 40 40 170 309 273 70 217 254 229 234 175 163 184 214 318 288 310 229 211 156 221 316 159 75 303 326 236 241
334 334 333 334 329 326 329 335 339 340 341 332 325 310 260 226 271 12 26 54 198 239 270 19 4 290 221 314 246 153 177 246 243 217 307 239 323 165 194 201 193 190 169 174 240 223 264
332 333 330 327 322 320 318 324 333 339 331 328 327 307 287 309 210 102 101 169 213 215 347 3 346 322 283 51 263 15 199 235 246 172 197 314 266 240 124 176 138 230 187 237 308 297 292
326 326 325 325 327 323 320 313 323 333 330 328 321 302 299 311 7 83 192 231 250 345 351 40 297 261 296 349 352 8 282 52 334 98 286 292 306 334 346 69 316 181 267 78 255 270 253
316 318 318 322 323 330 330 324 314 326 327 322 310 315 259 332 79 115 233 232 283 311 32 357 314 266 23 303 238 291 284 327 14 351 8 339 232 288 104 182 204 316 228 226 217 200 256
312 309 315 315 319 327 329 331 327 324 333 31 323 311 289 353 146 245 214 206 220 265 328 264 186 208 220 231 273 242 231 236 26 247 72 31 284 280 258 241 213 231 255 231 228 256 239
297 301 306 310 315 318 323 330 327 314 344 347 282 258 324 45 220 254 274 270 279 261 240 268 235 212 158 181 287 241 275 46 57 56 48 357 297 302 297 354 34 228 330 344 323 309 264
290 298 295 305 304 308 312 315 324 317 300 108 317 314 315 31 333 273 296 281 275 265 230 212 258 261 219 234 195 246 236 270 24 59 339 114 239 241 267 268 300 293 291 284 254 242 280
285 282 285 291 294 300 305 305 310 315 272 108 192 243 205 218 237 232 249 282 277 276 229 241 302 240 240 256 246 228 238 281 277 282 288 171 256 252 263 270 266 265 266 272 266 262 253
283 277 278 279 284 287 294 296 300 305 285 185 239 219 336 278 306 274 230 300 271 263 235 241 223 272 239 243 225 287 305 234 260 234 201 184 271 273 269 268 270 265 261 261 258 262 263
282 279 276 278 280 281 280 282 285 290 270 222 220 280 167 213 225 147 216 218 245 241 243 244 278 266 228 252 267 268 261 256 247 254 265 248 267 271 271 287 297 265 261 267 286 286 341
280 276 275 276 275 275 272 275 275 273 257 226 212 157 247 241 213 205 245 262 269 250 256 274 239 186 221 276 249 266 261 258 255 257 232 252 260 260 279 304 269 257 31 68 108 47 4
278 276 276 275 272 270 265 267 279 272 275 241 223 206 197 242 200 233 251 263 280 282 260 242 246 138 155 149 22 332 315 351 307 228 211 225 236 249 243 232 276 18 19 355 10 344 10
278 274 274 274 272 267 265 262 268 270 270 255 225 199 224 236 219 223 225 230 277 262 307 224 96 359 302 162 141 210 242 241 290 302 46 87 253 265 328 267 270 46 318 299 283 260 359
275 274 277 278 268 268 265 260 265 269 268 249 230 194 230 241 229 211 210 224 204 256 240 181 160 153 326 173 208 216 244 205 247 221 195 199 214 229 258 264 110 349 320 315 61 323 332
279 278 271 273 276 270 266 268 271 273 277 253 233 192 207 225 216 226 191 208 256 204 267 211 135 164 151 204 191 238 237 263 40 229 189 193 286 326 321 283 251 358 14 42 312 313 317
283 278 276 275 272 271 260 265 273 275 281 265 208 185 181 186 207 102 349 13 182 154 251 211 183 163 184 159 297 284 290 356 176 272 28 134 336 326 20 86 65 23 31 351 332 324 334